Location: Bratsk-Energetik
(56.3300°N, 101.7600°E)
Time: 22:12:14
(UTC+08:00)

ISS - Pass Details

Date: 22 May 2017
Orbit: 402 x 409 km, 51.6° (Epoch: 25 May)

Event Time Altitude Azimuth Distance (km) Brightness Sun altitude
Exits shadow 01:56:15 18° 228° (SW) 1,083 -2.1 -12.7°
Maximum altitude 01:58:11 34° 173° (S) 693 -3.2 -12.7°
Drops below altitude 10° 02:01:12 10° 106° (ESE) 1,465 -1.0 -12.6°
Sets 02:03:23 0° 97° (E) 2,324 0.1 -12.5°
